Wind_Speed
22 24 23 24 26 24 23 23 19 22 21 21 13 12 9 9 13 14 12 11 9 5 6 5 3 1 2 1 1 1 3 6 8 9 9 10 11 12 12 13 14 17 19 20
24 22 23 26 26 26 24 24 26 24 29 21 17 16 16 17 15 15 15 13 11 10 9 6 6 5 2 2 1 2 4 5 7 9 10 10 11 12 12 12 13 14 19 19
20 20 21 16 13 19 23 22 22 21 22 14 10 14 14 17 18 17 15 14 12 11 10 8 6 4 3 2 2 4 5 6 9 9 10 12 12 12 12 13 14 15 18 20
14 16 18 13 11 15 13 16 14 19 22 20 9 11 12 15 17 16 16 15 13 13 11 9 7 5 4 4 4 5 7 7 8 10 12 11 12 13 12 13 14 14 17 20
12 13 16 20 17 13 11 15 12 17 18 11 10 10 8 13 15 15 15 16 15 15 13 10 8 6 6 6 6 7 7 8 10 11 11 11 12 12 12 12 13 14 16 18
13 15 14 13 5 1 3 13 7 11 5 10 17 9 8 14 15 16 18 18 17 16 14 11 8 7 8 7 7 6 8 8 9 10 10 10 11 11 11 11 12 12 13 16
16 13 12 14 4 3 7 5 8 9 3 10 12 6 19 18 17 19 18 19 18 16 13 12 8 9 9 7 6 6 6 7 8 8 9 9 9 10 10 10 11 12 12 13
11 17 16 3 3 8 4 3 5 4 5 10 10 15 19 19 17 20 20 20 17 15 14 13 11 10 9 7 7 6 7 8 7 7 7 8 9 9 10 10 10 11 12 12
5 3 2 4 4 4 3 2 0 4 9 14 14 16 18 17 17 18 19 18 16 16 15 13 12 10 9 8 7 7 7 6 5 6 6 7 8 9 9 10 10 11 12 13
8 7 9 9 5 4 2 2 5 8 12 14 16 17 17 16 15 18 18 15 16 16 15 14 13 11 10 10 8 6 4 3 3 4 5 6 6 7 8 10 10 11 12 14
13 15 11 9 9 7 5 5 8 11 13 14 16 16 16 15 15 19 19 17 16 15 15 14 13 12 10 9 8 6 4 3 1 1 2 3 4 6 5 7 8 8 10 11
7 8 7 7 6 9 10 11 13 14 15 14 15 16 15 14 18 19 19 18 18 17 16 15 13 12 10 8 7 6 5 3 1 1 1 2 2 2 6 5 7 8 9 9
9 3 5 4 4 8 10 11 13 14 13 15 17 18 18 16 18 18 19 19 19 18 17 15 13 12 10 8 6 5 4 3 2 1 2 3 3 4 5 7 8 8 10 13
1 3 3 4 2 7 9 12 15 15 16 16 18 18 17 16 18 18 18 19 18 18 17 15 13 13 13 11 8 8 6 7 4 4 4 4 5 5 6 7 8 6 9 9
5 4 4 3 6 9 13 14 14 13 13 13 17 17 17 17 17 17 17 17 18 17 17 16 15 14 13 12 10 9 7 7 6 5 6 6 6 7 7 8 8 9 8 6
4 4 4 7 9 11 13 14 14 13 13 15 17 17 17 16 16 16 17 18 19 19 17 17 15 14 15 13 11 9 8 8 8 8 8 8 8 8 8 9 9 9 9 9
5 5 6 8 10 12 13 12 12 13 15 16 16 17 17 16 16 16 17 17 15 16 17 18 16 17 16 14 11 10 9 10 10 9 10 9 9 9 9 9 9 9 9 4
1 2 4 6 9 11 11 11 13 16 14 16 16 16 15 15 14 15 15 15 12 12 13 14 16 17 18 14 13 11 11 11 11 11 10 9 10 8 9 9 10 10 10 7
2 2 2 4 10 12 12 13 13 14 14 16 18 13 13 13 11 14 15 14 13 14 16 15 16 17 17 18 13 12 12 12 11 11 10 8 8 10 10 10 10 10 11 11
1 2 2 6 8 11 9 11 16 16 17 19 16 13 12 11 12 14 15 16 15 12 11 15 17 16 15 14 16 13 12 12 12 12 11 11 10 11 10 9 10 10 10 10
3 4 5 7 9 11 14 16 18 14 15 17 15 14 13 13 13 14 13 13 15 16 14 13 14 14 14 14 14 13 12 12 12 12 12 11 11 10 10 10 9 9 10 10
3 3 4 7 8 8 9 12 12 14 13 12 11 12 12 12 12 13 13 11 8 15 14 14 14 15 13 15 14 12 12 11 11 11 11 11 10 10 10 10 10 10 10 11
4 5 6 7 7 8 8 9 10 11 11 11 12 12 13 11 12 12 11 14 13 13 11 13 13 14 16 15 13 12 11 11 11 11 10 9 10 10 10 10 10 10 11 11
6 6 6 5 6 7 6 6 7 7 9 9 10 12 11 10 8 10 8 6 11 16 15 11 13 15 16 13 13 12 11 11 10 9 10 9 9 9 9 9 10 11 11 12
5 5 5 4 4 4 4 5 6 5 5 6 6 8 11 10 9 5 10 9 10 12 11 12 13 15 15 13 13 12 11 10 10 9 9 8 8 8 9 10 10 12 13 14
3 3 3 2 4 2 2 3 3 4 4 5 6 6 6 7 8 8 7 9 10 10 11 11 13 14 14 14 13 12 11 10 9 8 9 9 9 9 10 11 12 14 15 16
3 2 2 2 3 2 2 1 1 1 1 2 4 4 5 6 7 8 9 8 9 9 10 11 10 12 13 13 13 12 11 10 9 8 8 9 9 10 10 11 10 9 10 9
Wind_Direction
266 271 271 270 271 272 272 271 274 279 271 276 193 197 164 149 171 169 177 166 163 175 165 158 143 122 165 359 24 343 6 18 10 14 15 14 14 15 19 17 17 16 14 12
271 267 258 258 258 261 263 271 272 277 277 279 168 184 178 178 177 178 180 171 166 172 182 164 158 168 142 96 48 26 32 21 19 20 19 21 22 20 21 21 23 23 19 13
265 268 270 273 269 270 270 271 270 274 279 291 195 207 183 177 187 189 176 167 168 169 166 164 156 153 126 108 92 59 46 37 30 25 28 28 26 24 25 25 25 25 23 19
268 286 271 269 235 243 253 266 274 280 286 291 228 218 194 185 184 181 170 166 161 155 158 157 149 146 144 119 99 79 60 52 43 38 37 32 31 30 29 28 29 29 27 25
252 255 261 270 266 244 238 278 278 269 261 251 136 142 150 193 174 167 161 157 156 153 151 149 148 150 137 119 100 83 69 59 48 42 40 37 36 33 31 33 32 32 30 26
247 260 268 274 82 360 325 277 3 329 292 148 149 188 170 156 149 149 150 149 146 144 145 145 141 133 122 98 102 89 62 56 52 48 44 42 36 32 33 33 33 30 30 28
237 249 262 272 161 231 253 322 344 328 148 168 189 330 133 144 142 149 145 143 146 148 146 152 138 131 114 123 105 80 69 64 59 49 45 39 37 34 28 30 31 28 25 23
236 248 265 330 111 237 7 16 3 308 147 161 111 120 132 143 144 146 147 146 153 146 145 148 145 135 135 121 112 98 82 70 57 49 47 40 38 30 26 23 24 21 18 15
243 249 8 297 308 46 333 347 118 158 153 134 142 141 145 149 150 150 147 153 156 151 148 146 152 151 136 139 133 111 92 82 58 45 43 36 33 27 24 18 17 14 12 10
277 273 282 246 213 252 263 272 174 159 146 157 148 151 149 150 150 150 150 158 156 154 153 153 155 152 145 146 141 127 116 102 76 54 40 34 30 25 24 19 14 12 7 4
256 265 275 270 250 232 198 166 156 149 159 157 152 155 156 157 156 154 161 162 159 158 162 158 159 157 154 154 155 155 152 147 142 62 41 26 35 31 28 24 27 12 4 357
258 272 275 294 355 187 185 179 165 159 160 155 159 159 161 160 161 161 164 163 166 169 167 166 166 159 157 161 171 174 173 177 186 301 318 332 322 254 323 355 2 8 11 13
265 341 303 330 273 174 185 177 167 165 160 159 162 162 164 159 161 162 165 171 173 171 169 168 165 160 160 162 164 171 176 176 194 232 273 291 298 308 308 293 311 316 336 345
286 209 219 204 198 180 175 163 159 159 160 163 159 163 161 159 156 168 171 175 171 169 167 169 167 175 184 175 172 176 177 196 206 230 253 271 281 289 293 301 310 307 306 320
252 225 295 189 172 168 162 157 163 160 159 159 161 164 163 162 170 173 171 172 171 173 177 180 184 185 186 187 190 193 198 213 222 238 252 264 271 278 281 288 294 300 306 296
195 229 180 169 167 168 169 172 168 165 164 164 167 167 170 168 171 170 173 176 178 181 183 187 189 191 191 192 199 211 223 231 227 245 248 256 263 270 279 284 292 298 303 312
196 204 186 179 180 180 182 179 174 170 169 172 171 169 171 170 169 174 179 181 185 182 177 183 191 203 206 202 202 215 225 226 228 244 251 255 263 269 277 283 290 298 303 297
266 330 224 195 188 185 186 182 174 173 175 175 168 170 170 171 177 176 176 173 174 173 187 192 196 208 210 211 209 225 234 237 237 244 254 257 262 275 280 286 292 296 303 301
281 279 198 199 183 182 177 179 174 173 162 150 151 155 158 158 159 163 167 177 188 195 203 194 201 207 212 217 215 227 238 242 248 251 254 259 271 267 279 284 292 298 299 301
66 80 154 160 165 181 153 147 137 134 151 155 149 149 164 171 170 175 184 198 208 214 211 206 207 210 210 216 221 226 238 242 248 255 255 261 272 276 281 285 282 289 297 302
69 71 82 91 84 113 140 151 151 147 163 169 168 178 183 181 185 185 192 211 216 207 205 204 205 207 213 215 218 225 236 239 247 253 259 261 270 274 279 287 290 290 293 297
60 97 111 121 118 118 152 163 164 160 161 171 177 174 177 183 192 205 216 229 219 212 204 206 210 210 213 212 216 223 230 237 247 255 260 264 268 273 278 284 287 288 289 290
78 104 117 123 133 140 141 158 174 178 176 183 185 185 192 200 205 208 225 233 216 212 206 211 213 209 206 209 213 222 230 239 246 255 262 267 269 271 274 278 282 285 286 285
103 99 103 109 121 134 147 167 170 180 193 200 205 203 193 202 212 223 230 220 206 216 220 215 211 206 204 209 213 223 233 236 242 249 256 257 257 263 265 269 275 280 282 283
67 89 105 121 145 154 140 159 169 175 190 206 202 211 215 216 218 233 208 213 214 208 215 216 209 206 209 209 217 224 227 231 238 243 245 244 249 255 264 270 276 280 283 285
37 60 82 52 36 64 137 162 218 200 213 217 223 216 221 219 219 216 217 212 213 215 209 209 208 210 212 214 219 220 223 229 233 239 236 243 251 260 269 276 282 285 286 288
65 63 85 101 74 61 64 57 243 260 211 263 271 181 219 222 226 224 221 222 219 220 216 213 210 211 209 214 216 218 219 227 229 231 234 243 253 264 274 284 298 316 321 326
Height
775 770 767 763 758 754 757 751 757 746 751 748 780 784 786 795 805 810 819 822 828 832 836 837 838 838 839 840 838 839 837 836 834 832 830 828 826 824 822 820 818 816 812 809
771 763 758 757 752 750 747 744 742 739 734 732 752 771 780 792 804 807 809 815 822 829 832 833 835 837 837 838 838 838 836 835 835 832 830 828 826 824 822 821 819 816 814 811
774 760 754 759 754 747 740 736 739 742 732 727 744 750 760 781 794 797 804 810 817 824 829 832 834 836 836 837 837 836 836 836 833 833 830 828 826 825 823 822 820 818 816 813
772 766 769 745 735 736 743 740 743 739 733 730 742 745 755 767 785 790 800 807 814 821 828 831 833 835 837 836 837 837 836 836 835 833 831 830 828 827 825 823 822 820 818 816
777 761 746 734 727 728 737 735 730 728 722 722 737 749 764 771 777 788 798 806 814 820 826 830 833 835 836 837 837 838 838 837 835 834 833 832 831 830 828 827 825 823 821 818
766 762 753 729 725 730 731 738 726 721 720 728 743 749 753 767 779 791 800 807 814 821 826 831 834 836 837 838 840 841 839 838 837 837 836 835 834 833 831 829 828 826 823 821
762 763 742 725 724 734 742 738 733 729 726 738 745 747 754 773 786 796 803 810 817 821 826 832 835 836 838 840 841 840 840 839 839 839 839 838 836 835 833 831 830 828 826 824
757 756 751 721 730 739 738 737 739 738 737 746 761 764 769 780 790 799 805 811 816 821 826 831 834 836 839 839 840 840 839 840 840 840 840 840 838 837 835 833 832 830 828 826
740 733 735 731 729 736 739 740 743 745 746 756 764 771 779 786 793 800 806 811 816 820 825 830 834 836 837 839 840 840 841 841 842 842 841 841 840 838 837 835 833 832 829 827
735 729 726 725 732 739 741 741 743 745 751 759 764 773 779 787 793 801 809 813 816 821 825 829 832 835 836 838 840 841 842 843 843 843 843 842 841 840 839 837 835 833 831 828
731 727 724 730 731 735 742 745 746 749 755 759 766 773 780 786 793 801 809 813 818 822 826 829 831 833 835 837 839 841 843 844 844 844 843 843 841 841 840 839 838 836 834 832
732 730 726 727 729 733 740 744 747 751 756 762 768 773 779 785 792 800 806 812 817 822 825 828 830 832 835 837 838 840 842 843 843 843 843 843 842 841 839 838 837 836 834 832
722 727 729 734 733 735 739 743 748 752 758 763 769 774 779 785 792 798 805 810 814 818 822 826 828 831 834 836 838 840 841 842 843 843 843 842 841 840 839 836 835 834 833 831
727 734 736 736 737 739 741 746 752 755 761 765 769 775 780 786 793 798 803 808 812 818 822 825 827 829 832 834 836 837 839 840 841 841 842 842 841 840 839 837 835 833 830 830
732 734 736 736 739 742 745 750 753 758 763 767 772 776 781 786 793 797 802 807 812 816 820 823 826 828 830 832 834 835 837 838 839 840 840 840 839 838 836 835 833 831 830 828
733 736 737 739 741 745 748 752 755 760 765 769 772 777 782 787 792 796 802 806 809 812 817 821 824 827 828 831 833 835 836 836 837 837 837 837 836 835 833 832 831 829 828 827
736 738 738 740 743 746 749 753 756 761 765 769 773 778 782 786 791 796 801 805 808 810 813 817 821 824 826 829 831 833 833 834 834 835 834 833 833 832 831 830 829 828 826 825
735 736 736 738 742 747 750 754 757 761 765 769 773 778 783 786 790 796 800 804 808 811 813 815 818 820 823 826 828 830 830 831 831 831 831 831 830 830 829 828 827 826 825 823
739 738 738 740 742 746 750 755 758 762 766 770 775 780 784 788 792 796 800 804 806 808 809 811 813 816 819 822 825 827 827 828 828 828 828 828 829 827 826 826 825 824 823 821
743 743 743 744 745 748 751 755 759 764 768 772 777 782 785 789 792 796 798 800 802 804 806 807 810 812 815 818 819 822 823 824 825 825 825 825 825 824 823 823 822 821 820 819
748 748 749 750 751 753 755 758 761 766 770 774 777 780 783 787 791 793 796 797 797 800 801 803 806 809 811 814 816 818 819 820 820 821 820 820 820 820 820 820 819 818 818 817
751 752 753 754 755 758 760 763 765 768 771 774 777 780 783 786 789 791 792 793 794 795 797 800 802 805 808 810 812 813 815 816 816 817 817 816 816 816 816 816 816 815 814 813
754 755 756 757 758 760 763 765 767 768 771 773 776 778 781 783 786 788 788 789 792 792 794 797 799 801 803 805 808 810 811 812 812 813 813 813 813 814 814 813 813 812 811 810
756 757 758 760 761 762 763 766 767 769 771 773 774 776 779 781 783 784 786 786 788 790 792 794 795 797 799 801 803 805 806 807 808 809 810 810 811 811 811 810 810 809 808 806
759 760 760 761 761 762 763 766 768 769 771 773 774 775 776 778 779 780 781 783 784 785 787 790 792 793 795 797 799 801 802 804 804 805 806 806 807 807 807 806 806 805 803 802
761 760 762 763 762 762 763 765 766 767 769 770 772 773 774 775 776 777 779 780 781 781 784 785 787 789 791 794 796 797 799 800 801 801 802 803 803 803 803 803 802 800 799 797
764 764 764 764 765 765 765 765 765 766 768 769 770 770 772 773 774 775 776 777 779 780 782 783 784 785 787 790 792 794 795 797 797 798 799 799 800 800 799 799 798 796 795 794